Temp
-15 -14 -14 -15 -15 -13 -14 -14 -14 -14 -14 -14 -14 -14 -14 -14 -14 -15 -15 -15 -15 -15 -14 -14 -14 -14 -14 -15 -16 -16 -16 -17 -17 -17 -17 -16 -16 -16 -16 -16 -16 -16 -15 -15
-15 -14 -15 -15 -15 -14 -14 -14 -14 -15 -14 -14 -14 -14 -14 -15 -15 -15 -15 -15 -15 -15 -14 -14 -15 -15 -15 -16 -17 -17 -17 -17 -18 -17 -17 -17 -17 -17 -16 -16 -16 -16 -16 -16
-15 -15 -15 -15 -15 -15 -15 -15 -15 -15 -15 -15 -14 -14 -15 -15 -16 -16 -15 -15 -15 -15 -15 -15 -15 -16 -17 -17 -17 -18 -18 -18 -18 -18 -18 -18 -18 -18 -17 -17 -17 -16 -16 -16
-15 -15 -15 -15 -15 -15 -15 -16 -16 -15 -15 -15 -15 -14 -15 -15 -16 -16 -16 -15 -15 -15 -15 -16 -16 -17 -17 -17 -17 -18 -18 -18 -18 -19 -19 -19 -18 -18 -18 -17 -17 -17 -17 -16
-15 -15 -15 -15 -15 -16 -16 -16 -16 -16 -16 -16 -16 -16 -15 -16 -16 -16 -16 -15 -16 -16 -16 -16 -17 -17 -17 -17 -18 -18 -18 -19 -19 -19 -19 -19 -19 -19 -18 -18 -17 -17 -17 -17
-16 -16 -16 -16 -16 -16 -16 -16 -16 -16 -16 -16 -16 -17 -16 -16 -16 -16 -16 -16 -16 -16 -17 -17 -17 -17 -17 -18 -19 -19 -19 -19 -19 -20 -20 -19 -19 -19 -19 -18 -18 -17 -18 -17
-16 -16 -16 -16 -16 -16 -16 -17 -17 -17 -17 -16 -16 -17 -16 -16 -17 -16 -16 -16 -17 -17 -17 -17 -17 -18 -19 -19 -20 -20 -20 -20 -20 -20 -20 -20 -20 -20 -19 -18 -18 -18 -18 -17
-16 -16 -16 -16 -16 -16 -17 -17 -17 -17 -17 -17 -17 -16 -16 -17 -17 -16 -16 -16 -17 -17 -18 -18 -18 -18 -19 -20 -20 -20 -20 -20 -20 -20 -21 -20 -20 -19 -19 -19 -18 -18 -18 -18
-17 -17 -17 -16 -17 -17 -17 -17 -18 -18 -18 -17 -17 -16 -17 -17 -17 -17 -17 -17 -17 -18 -18 -18 -18 -19 -20 -20 -20 -19 -20 -20 -20 -20 -20 -20 -20 -19 -19 -19 -18 -18 -18 -18
-17 -17 -17 -17 -17 -17 -17 -18 -18 -18 -18 -17 -17 -16 -17 -18 -17 -17 -17 -17 -18 -18 -18 -18 -19 -20 -20 -20 -20 -20 -20 -19 -20 -20 -19 -19 -19 -19 -19 -18 -18 -18 -18 -18
-18 -18 -17 -17 -17 -18 -18 -17 -18 -19 -18 -18 -17 -17 -17 -18 -18 -17 -17 -18 -18 -18 -18 -19 -20 -20 -20 -20 -20 -19 -19 -19 -19 -19 -19 -19 -19 -19 -19 -19 -19 -19 -19 -19
-18 -18 -18 -18 -18 -18 -18 -18 -18 -18 -18 -18 -18 -17 -18 -18 -18 -17 -18 -18 -18 -18 -18 -19 -20 -20 -20 -19 -19 -19 -19 -19 -19 -19 -19 -19 -19 -19 -19 -19 -19 -19 -19 -19
-18 -18 -18 -18 -18 -18 -18 -18 -19 -19 -19 -18 -19 -18 -19 -19 -18 -17 -18 -18 -18 -18 -18 -19 -20 -19 -19 -19 -19 -20 -20 -19 -19 -19 -19 -19 -19 -19 -19 -19 -19 -19 -19 -19
-19 -19 -19 -18 -19 -19 -19 -19 -19 -19 -18 -19 -19 -19 -19 -19 -18 -18 -18 -18 -18 -18 -18 -19 -20 -19 -19 -20 -20 -20 -20 -20 -19 -19 -19 -19 -19 -19 -19 -19 -19 -19 -19 -19
-20 -20 -19 -19 -19 -19 -19 -19 -19 -19 -20 -20 -19 -19 -20 -19 -18 -18 -18 -18 -19 -18 -18 -19 -19 -20 -20 -20 -20 -20 -20 -20 -19 -19 -19 -19 -19 -20 -20 -19 -19 -19 -19 -19
-21 -21 -20 -20 -20 -20 -20 -19 -19 -20 -21 -20 -20 -19 -20 -19 -19 -19 -19 -19 -19 -18 -19 -19 -19 -20 -20 -20 -20 -20 -20 -20 -19 -20 -20 -20 -20 -20 -20 -19 -19 -19 -19 -19
-21 -21 -21 -21 -21 -21 -20 -20 -20 -22 -22 -21 -20 -20 -20 -20 -20 -19 -19 -19 -19 -19 -19 -19 -20 -19 -20 -20 -20 -20 -20 -20 -20 -20 -20 -20 -20 -20 -20 -20 -20 -20 -20 -19
-22 -22 -22 -21 -21 -20 -20 -21 -22 -22 -22 -21 -21 -21 -20 -20 -20 -20 -20 -19 -19 -19 -19 -19 -20 -20 -20 -20 -20 -20 -20 -20 -20 -20 -20 -20 -20 -20 -20 -20 -20 -20 -20 -20
-22 -22 -22 -22 -21 -21 -21 -22 -22 -22 -22 -21 -21 -21 -21 -21 -21 -20 -20 -20 -20 -20 -19 -19 -20 -20 -20 -21 -21 -21 -21 -21 -21 -21 -20 -20 -20 -20 -20 -20 -20 -20 -20 -20
-23 -23 -23 -23 -22 -22 -22 -23 -23 -22 -22 -21 -21 -21 -21 -21 -21 -21 -21 -21 -20 -20 -20 -20 -20 -21 -21 -21 -21 -21 -21 -21 -21 -21 -21 -21 -21 -21 -20 -20 -20 -20 -20 -20
-24 -24 -24 -24 -24 -23 -23 -23 -23 -22 -22 -22 -21 -21 -21 -21 -21 -21 -21 -21 -21 -21 -20 -20 -20 -21 -21 -21 -21 -21 -21 -21 -21 -21 -21 -21 -21 -21 -21 -21 -20 -20 -20 -20
-25 -25 -25 -24 -24 -24 -23 -23 -23 -22 -22 -22 -22 -22 -22 -22 -22 -22 -22 -21 -21 -21 -21 -21 -21 -21 -21 -21 -22 -22 -22 -21 -21 -22 -21 -21 -21 -21 -21 -21 -21 -20 -20 -20
-25 -24 -24 -24 -24 -23 -23 -23 -23 -23 -22 -22 -22 -22 -22 -22 -22 -22 -22 -22 -22 -22 -21 -21 -21 -21 -22 -22 -22 -22 -22 -22 -22 -22 -22 -22 -21 -21 -21 -21 -21 -21 -21 -20
-25 -25 -24 -24 -24 -24 -23 -23 -23 -23 -23 -23 -23 -23 -23 -23 -23 -23 -23 -23 -23 -22 -22 -22 -22 -22 -22 -23 -23 -23 -23 -23 -22 -22 -22 -22 -22 -21 -21 -21 -21 -21 -21 -21
-25 -25 -24 -24 -24 -24 -23 -23 -23 -23 -23 -23 -23 -23 -23 -23 -23 -23 -23 -23 -23 -23 -23 -23 -23 -23 -23 -24 -24 -24 -24 -23 -23 -23 -23 -23 -23 -23 -22 -22 -22 -22 -22 -22
-26 -25 -25 -25 -25 -24 -24 -24 -24 -24 -24 -24 -24 -24 -24 -24 -24 -24 -24 -24 -24 -24 -24 -24 -24 -24 -24 -24 -25 -25 -24 -24 -24 -24 -24 -24 -24 -24 -24 -24 -24 -24 -23 -23
Height
5686 5689 5694 5697 5693 5694 5697 5698 5698 5699 5699 5699 5700 5701 5699 5699 5699 5698 5696 5695 5693 5691 5690 5687 5683 5679 5675 5672 5669 5666 5663 5661 5660 5659 5660 5661 5662 5663 5665 5667 5670 5671 5673 5674
5674 5679 5683 5680 5683 5684 5685 5687 5689 5688 5688 5689 5689 5691 5689 5690 5688 5688 5686 5684 5682 5680 5678 5675 5671 5667 5662 5658 5655 5652 5650 5648 5647 5646 5645 5646 5647 5649 5652 5655 5657 5659 5661 5663
5663 5669 5668 5670 5672 5673 5675 5676 5678 5678 5678 5678 5679 5680 5680 5680 5679 5677 5675 5674 5672 5669 5666 5663 5658 5654 5650 5647 5644 5641 5639 5637 5635 5634 5633 5633 5634 5637 5640 5643 5646 5648 5649 5651
5649 5654 5658 5659 5662 5664 5665 5667 5667 5667 5668 5668 5669 5666 5672 5671 5670 5667 5665 5663 5661 5658 5655 5650 5645 5641 5638 5635 5632 5629 5627 5625 5624 5623 5623 5623 5623 5625 5628 5631 5634 5637 5639 5641
5642 5644 5646 5648 5652 5652 5655 5656 5657 5658 5657 5657 5660 5655 5663 5662 5660 5657 5655 5653 5651 5648 5644 5640 5635 5631 5626 5621 5618 5616 5615 5613 5613 5613 5613 5613 5613 5614 5617 5621 5624 5627 5630 5632
5628 5632 5635 5638 5640 5641 5644 5646 5647 5647 5647 5646 5651 5648 5653 5653 5651 5648 5646 5644 5641 5638 5634 5630 5625 5619 5613 5608 5605 5604 5604 5604 5603 5603 5603 5603 5604 5605 5608 5612 5615 5618 5622 5624
5617 5620 5624 5627 5629 5631 5634 5636 5636 5636 5637 5638 5640 5639 5645 5643 5641 5639 5637 5635 5632 5629 5625 5620 5614 5607 5602 5597 5595 5595 5596 5595 5595 5594 5594 5595 5596 5598 5601 5604 5608 5611 5615 5618
5604 5608 5613 5617 5619 5622 5623 5625 5626 5625 5627 5630 5630 5630 5635 5634 5632 5631 5629 5627 5624 5620 5616 5611 5605 5599 5595 5592 5590 5589 5588 5588 5587 5586 5586 5588 5590 5593 5595 5599 5602 5606 5609 5612
5593 5595 5600 5604 5607 5610 5613 5614 5617 5616 5617 5618 5621 5624 5626 5625 5623 5622 5621 5619 5616 5612 5608 5603 5598 5593 5589 5587 5585 5584 5583 5583 5582 5581 5582 5583 5586 5589 5592 5595 5598 5600 5603 5605
5582 5585 5589 5593 5597 5600 5602 5607 5606 5606 5609 5611 5613 5614 5616 5615 5614 5614 5613 5611 5608 5604 5599 5595 5590 5588 5585 5583 5581 5579 5580 5580 5579 5579 5579 5581 5583 5586 5588 5591 5594 5596 5598 5600
5571 5575 5581 5584 5588 5591 5594 5596 5597 5599 5601 5602 5605 5607 5607 5607 5606 5605 5605 5604 5600 5596 5592 5588 5585 5583 5581 5580 5578 5577 5576 5576 5575 5576 5577 5579 5581 5583 5586 5589 5590 5592 5593 5594
5561 5563 5569 5575 5578 5581 5584 5586 5587 5589 5593 5595 5596 5600 5598 5599 5597 5597 5598 5596 5593 5588 5585 5582 5579 5579 5577 5576 5575 5574 5573 5572 5573 5573 5575 5577 5579 5582 5584 5585 5587 5588 5589 5590
5551 5554 5559 5564 5569 5572 5575 5578 5579 5581 5583 5585 5587 5592 5591 5589 5588 5589 5589 5587 5585 5580 5578 5575 5574 5573 5573 5571 5571 5571 5571 5571 5571 5572 5573 5575 5577 5579 5580 5581 5582 5583 5584 5585
5541 5545 5551 5557 5560 5563 5565 5568 5569 5572 5574 5578 5581 5582 5581 5580 5580 5581 5582 5580 5577 5573 5571 5569 5568 5567 5567 5567 5567 5567 5568 5568 5568 5570 5571 5572 5573 5575 5576 5577 5577 5578 5578 5578
5532 5537 5542 5545 5549 5551 5555 5558 5559 5563 5568 5568 5574 5574 5572 5571 5571 5572 5573 5572 5570 5567 5565 5563 5562 5562 5561 5561 5562 5562 5563 5564 5565 5566 5567 5568 5569 5570 5570 5571 5572 5572 5572 5572
5522 5527 5531 5535 5539 5541 5546 5549 5551 5555 5558 5562 5564 5565 5563 5563 5564 5563 5563 5563 5562 5560 5558 5557 5556 5556 5555 5555 5556 5556 5557 5558 5559 5561 5562 5563 5564 5564 5565 5565 5565 5565 5565 5565
5514 5517 5521 5525 5529 5532 5537 5543 5544 5547 5551 5553 5554 5557 5553 5555 5556 5555 5555 5555 5554 5553 5551 5549 5548 5548 5549 5549 5549 5550 5550 5551 5553 5555 5556 5557 5557 5558 5558 5558 5558 5558 5558 5557
5504 5509 5512 5516 5519 5522 5532 5534 5536 5538 5542 5543 5545 5544 5544 5546 5547 5546 5546 5546 5546 5545 5543 5542 5542 5541 5541 5542 5542 5542 5543 5544 5545 5547 5548 5549 5550 5550 5550 5550 5551 5551 5550 5548
5496 5499 5502 5506 5511 5517 5521 5525 5528 5530 5534 5535 5535 5535 5536 5536 5537 5537 5538 5537 5537 5536 5535 5534 5534 5533 5532 5532 5534 5534 5535 5536 5537 5538 5539 5540 5541 5541 5541 5541 5541 5540 5540 5539
5488 5491 5495 5499 5502 5507 5513 5516 5519 5522 5524 5525 5526 5527 5527 5527 5528 5527 5528 5527 5528 5527 5527 5526 5525 5525 5524 5524 5524 5525 5526 5527 5528 5529 5529 5530 5531 5531 5531 5531 5530 5530 5529 5528
5480 5484 5488 5492 5495 5501 5505 5508 5510 5514 5519 5516 5517 5518 5518 5519 5520 5518 5517 5517 5518 5518 5517 5517 5516 5515 5515 5514 5514 5514 5515 5516 5517 5518 5518 5519 5519 5519 5520 5519 5518 5517 5516 5515
5475 5477 5481 5485 5489 5495 5498 5499 5502 5504 5505 5507 5508 5508 5508 5509 5509 5508 5508 5508 5508 5508 5508 5508 5507 5506 5505 5504 5503 5503 5503 5504 5505 5505 5506 5506 5506 5506 5506 5506 5505 5504 5503 5502
5469 5472 5476 5481 5485 5486 5488 5491 5493 5495 5496 5497 5498 5498 5498 5498 5498 5498 5498 5498 5497 5498 5497 5497 5496 5495 5495 5494 5493 5492 5492 5492 5491 5492 5493 5493 5493 5492 5492 5491 5491 5490 5488 5487
5462 5466 5470 5474 5477 5479 5481 5483 5485 5486 5487 5488 5488 5488 5489 5489 5489 5489 5489 5488 5488 5488 5487 5487 5487 5486 5485 5484 5483 5482 5481 5480 5480 5479 5479 5479 5479 5478 5478 5477 5476 5474 5473 5471
5456 5460 5463 5467 5468 5471 5474 5475 5477 5478 5478 5478 5479 5479 5479 5480 5479 5479 5479 5479 5479 5478 5478 5478 5477 5477 5475 5474 5474 5473 5472 5470 5469 5468 5467 5466 5465 5464 5463 5461 5461 5459 5457 5456
5447 5451 5456 5459 5461 5464 5465 5466 5467 5468 5469 5470 5470 5470 5470 5469 5469 5470 5470 5469 5469 5469 5469 5469 5468 5467 5466 5465 5464 5464 5463 5462 5460 5459 5458 5456 5454 5452 5450 5449 5447 5446 5445 5443
Wind_Speed
47 48 46 42 47 47 45 44 43 41 41 40 40 39 41 42 43 43 43 43 44 46 49 51 53 54 55 56 56 56 55 56 56 57 57 57 56 54 53 53 52 51 50 48
52 50 47 51 49 46 45 44 42 42 42 42 41 39 42 40 41 40 42 43 45 48 49 49 51 52 53 53 51 50 50 52 53 54 55 55 55 54 52 50 49 48 46 45
51 49 52 50 47 46 44 43 42 43 42 42 42 42 41 40 39 40 42 44 45 45 47 49 50 50 48 46 44 44 44 44 46 48 50 51 52 51 49 47 45 43 41 41
49 47 46 47 45 45 44 42 42 43 44 44 42 46 40 38 38 41 43 44 43 44 46 48 48 46 45 47 50 50 50 48 46 44 43 43 45 46 45 43 41 39 38 36
48 47 47 47 45 44 44 42 42 44 45 45 43 45 39 36 38 41 42 41 42 44 46 46 44 46 52 52 51 47 42 40 42 44 43 39 40 39 39 38 36 36 36 34
51 51 50 49 46 45 44 44 44 46 46 47 43 41 37 36 38 39 39 39 41 43 43 42 44 49 49 46 43 40 37 34 35 37 39 37 34 33 33 34 34 34 32 30
51 51 49 47 46 46 44 43 46 47 46 46 40 39 35 36 36 36 36 38 39 40 39 40 45 44 39 37 32 32 33 32 33 34 33 30 31 29 30 30 30 28 29 29
50 49 48 47 46 44 43 44 46 46 46 42 37 38 35 35 34 34 35 37 37 36 36 39 40 34 29 26 25 26 26 26 30 25 25 25 23 23 24 26 27 27 24 22
50 49 47 44 42 42 42 43 41 40 41 39 37 34 34 32 32 33 35 34 34 34 34 38 35 30 26 22 21 21 20 17 19 18 17 19 20 21 22 23 21 20 20 20
45 46 43 41 39 40 41 39 38 40 38 37 35 33 32 31 30 33 34 32 33 33 33 36 31 26 23 19 18 17 19 17 16 16 16 17 18 19 19 19 19 18 19 20
45 44 42 41 40 39 39 40 41 40 40 39 35 34 33 31 32 33 33 30 30 32 32 33 25 21 18 17 17 18 18 19 17 17 13 14 15 15 16 15 16 17 18 17
45 43 42 42 41 42 42 42 43 42 41 37 36 34 35 31 32 33 32 29 29 30 31 29 23 21 18 19 19 19 16 15 14 14 15 15 15 15 16 16 16 16 17 17
44 49 46 44 43 44 43 42 43 41 41 38 35 32 31 33 34 33 30 27 30 30 29 27 22 22 22 20 19 18 16 16 16 16 16 15 15 15 16 16 17 17 17 20
44 41 44 45 43 44 44 40 39 41 39 33 31 31 33 35 35 34 29 29 29 30 28 26 24 20 21 20 19 18 19 18 18 18 17 17 17 19 18 18 19 22 23 24
42 41 42 48 47 46 41 39 38 38 32 33 30 32 35 36 36 32 32 30 29 29 27 24 26 25 22 22 21 21 21 22 21 20 20 20 20 20 21 22 25 25 25 24
39 42 45 47 48 46 41 41 42 38 35 34 34 34 35 38 34 33 33 31 31 30 28 23 26 27 25 25 25 24 24 26 25 23 23 23 23 26 27 28 28 27 27 25
45 45 45 46 46 46 45 41 39 35 35 34 35 32 37 36 36 34 33 32 31 30 29 25 27 27 27 27 27 29 27 28 27 27 27 27 28 28 28 29 30 29 28 27
44 45 46 46 48 47 40 36 34 35 33 33 33 37 37 36 35 34 33 32 33 30 31 30 28 28 29 30 30 30 30 31 31 31 31 31 31 31 31 32 33 32 31 31
44 46 47 46 46 43 38 36 34 35 33 34 34 36 37 36 34 33 32 32 33 32 31 32 31 31 30 32 34 33 32 34 35 35 36 36 36 36 36 37 37 37 36 36
38 40 40 39 40 38 34 34 34 31 32 33 33 35 36 36 34 35 33 32 32 33 32 32 32 32 34 32 35 37 36 36 38 39 40 41 40 40 41 42 42 43 43 43
35 33 33 32 33 31 30 30 30 31 32 33 36 38 37 36 35 35 34 33 32 32 32 32 32 31 33 36 36 38 40 41 41 42 44 45 46 45 46 46 47 48 49 49
30 30 29 30 31 30 30 31 31 31 32 34 34 36 36 35 35 35 34 34 33 32 33 34 32 31 32 33 35 40 39 43 45 46 46 48 49 51 51 51 52 52 53 54
29 31 27 27 27 29 30 31 32 33 34 35 36 35 34 35 35 35 35 34 34 33 32 33 33 32 31 32 32 36 39 40 41 46 50 51 51 52 53 54 54 55 56 56
26 27 27 28 28 30 31 32 32 32 33 34 32 32 32 33 33 33 33 33 32 32 31 32 32 32 32 30 30 30 32 38 42 43 43 46 50 53 54 55 55 55 55 55
29 29 30 28 29 29 29 29 29 30 30 31 31 32 31 31 31 32 32 32 32 32 31 31 30 31 30 29 28 28 26 27 27 31 37 42 46 45 45 46 46 45 45 43
30 30 31 30 30 28 28 29 29 29 30 31 32 32 32 32 31 31 31 31 31 31 31 30 29 28 27 27 27 27 27 28 28 28 29 29 31 34 34 33 36 36 37 39
Wind_Direction
251 253 257 258 257 261 261 262 263 264 264 264 265 266 268 272 276 276 274 273 274 276 277 279 281 283 283 281 278 274 271 270 269 267 265 263 262 262 261 261 261 261 262 264
247 252 253 256 257 256 258 260 262 263 264 265 266 268 271 274 273 272 272 274 277 280 283 283 285 286 285 284 282 277 273 269 267 264 264 262 259 259 259 260 259 260 261 262
251 252 252 251 251 254 255 257 260 262 263 265 269 270 272 273 271 273 275 278 282 283 286 288 290 289 287 284 281 280 278 274 271 268 266 264 261 258 256 256 257 259 259 259
247 246 247 249 252 254 255 256 258 260 264 267 270 273 272 268 269 274 277 282 284 287 289 293 293 290 288 284 280 277 277 273 268 268 269 268 263 260 255 253 254 255 255 254
245 245 247 248 250 252 253 253 257 261 264 267 269 271 271 265 271 275 280 284 287 291 295 294 290 288 289 283 279 275 272 270 267 266 267 270 266 259 256 251 250 249 247 247
245 248 249 249 249 249 251 255 258 261 263 266 269 266 265 269 275 279 281 284 290 294 295 292 292 294 290 285 279 274 266 269 269 269 266 269 262 253 250 244 242 243 242 241
245 246 248 247 247 248 252 256 260 261 263 267 262 259 266 271 276 278 280 287 292 297 296 297 300 296 295 288 278 269 268 266 264 270 261 257 249 243 243 242 240 238 238 241
244 245 245 246 248 251 252 254 257 259 261 259 255 261 268 273 276 276 280 286 292 296 296 302 302 297 297 292 280 273 271 270 270 269 253 246 247 244 240 235 233 236 241 240
243 243 242 244 244 245 249 251 255 254 252 253 258 264 269 274 276 275 279 287 293 296 298 304 299 292 290 285 281 270 268 271 270 264 248 243 240 241 236 237 238 233 234 242
236 236 236 238 241 245 249 249 245 247 252 256 260 268 272 276 272 274 281 289 291 300 298 304 294 284 285 276 280 274 268 265 261 260 246 243 237 232 235 230 228 232 237 245
232 231 234 237 241 246 248 249 244 247 252 258 263 268 270 276 270 273 279 288 292 298 298 300 285 275 272 271 278 280 273 269 260 253 242 228 228 222 226 228 231 238 247 246
236 235 236 237 240 243 244 244 247 252 256 257 261 264 274 277 267 269 278 286 292 297 300 293 274 267 267 275 272 275 268 251 239 230 220 214 217 224 231 236 242 247 249 245
238 235 235 237 242 247 251 251 253 252 251 253 258 271 279 267 266 270 278 285 292 296 299 287 268 260 266 269 264 263 249 242 231 213 210 218 226 240 250 244 241 247 249 247
239 241 241 242 244 246 247 248 247 248 251 255 262 268 271 266 266 268 276 281 288 293 296 284 262 263 266 256 260 252 244 231 216 218 228 232 242 248 242 239 243 250 253 255
240 244 249 244 245 243 246 249 251 252 254 254 260 266 269 265 264 270 273 277 284 288 291 280 263 264 259 253 251 244 243 230 225 232 235 241 241 238 238 243 252 252 252 256
241 243 245 249 251 248 247 251 248 246 248 256 262 263 267 264 267 268 271 276 281 284 287 280 270 264 255 251 250 245 241 236 232 234 241 241 244 247 248 251 251 250 253 259
236 241 244 246 248 250 252 250 243 241 247 257 261 265 264 267 268 269 271 274 278 280 285 277 270 265 257 252 251 247 239 234 235 235 240 246 252 249 248 250 251 254 259 265
237 241 245 247 246 246 245 244 244 248 252 258 261 262 266 268 268 271 273 274 276 276 281 278 269 264 257 256 254 250 245 240 237 237 242 247 250 250 250 252 255 259 263 267
238 239 240 241 243 243 244 242 245 250 254 257 259 263 267 268 272 273 273 274 274 276 276 277 272 263 257 255 255 254 249 245 243 241 243 246 248 251 252 253 257 260 264 269
237 242 237 235 237 239 241 246 253 253 251 258 261 263 266 270 273 273 274 274 274 276 275 275 273 266 259 257 255 255 254 251 249 248 248 249 251 251 255 258 260 263 266 270
232 232 232 235 240 240 243 247 252 254 258 261 262 264 266 270 271 273 275 275 274 272 272 274 274 267 264 260 257 256 255 255 254 253 253 254 256 257 258 260 262 265 268 272
231 229 229 232 237 244 248 253 256 256 258 260 262 263 265 269 272 274 274 273 273 272 271 273 272 270 267 264 262 257 257 257 257 257 257 258 259 261 263 265 267 269 271 275
233 234 234 238 240 248 253 256 259 261 263 264 264 265 269 270 272 272 272 273 273 272 271 271 272 272 270 265 266 262 260 260 263 260 259 261 263 264 266 268 269 272 274 276
230 233 235 239 243 247 252 256 258 261 262 264 266 268 269 270 270 271 271 272 273 273 272 272 273 274 273 268 267 267 266 264 265 264 266 266 265 266 268 270 271 272 274 276
232 236 238 239 244 247 252 257 260 262 266 269 269 268 269 269 270 270 271 272 272 270 271 272 273 273 274 270 266 266 268 271 273 273 271 268 269 270 272 272 273 274 275 276
237 235 236 239 244 248 251 256 262 265 267 268 268 268 268 268 269 270 270 269 268 269 270 272 273 273 276 277 274 272 273 273 274 274 277 282 281 278 271 274 276 273 274 275